sat.trackr.live / text

‹ back to catalog

STARLINK-32579

NORAD 61922 · 2024-207L

PAYLOAD ACTIVE UNKNOWN

§ Identity

Operator
Country
US
Launch date
2024-11-11
Launch site
AFETR
Launch vehicle
Mass (kg)
RCS (m²)

Purposes: comms

External: N2YO · Heavens-Above · Gunter

§ Orbital elements

Epoch: 2026-09-21T08:27:44.727264Z

Period
94.27 min
Inclination
42.9985°
Eccentricity
0.0002297
Mean motion
15.27592374 rev/d
Perigee alt
481.4 km
Apogee alt
484.6 km
Semi-major
6,861.1 km
B*
4.7984e-4
RAAN
260.4179°
Arg perigee
285.0544°
Mean anomaly
75.0054°
Rev number
10,460

§ Raw data

STARLINK-325791 61922U 24207L   26264.35260101  .00012971  00000+0  47984-3 0  99972 61922  42.9985 260.4179 0002297 285.0544  75.0054 15.27592374104603

JSON: /api/v1/satellites/61922 · /tle

For live sub-satellite position, see the globe view (requires WebGL).

§ Visibility from observer

Set your observer location to see the next 7 days of passes ≥ 10°. The values pass through the URL so the page stays shareable.

No JS? Fill the form by hand. The geolocation button needs JavaScript.